Location: Oshawa
(43.9000°N, 78.8670°W)
Time: 00:00:22
(UTC-04:00)

ISS - Visible Passes

Search period start: 22 May 2018 00:00
Search period end: 01 June 2018 00:00
Orbit: 402 x 407 km, 51.6° (Epoch: 23 May)

Date Brightness Start Highest point End Pass type
(mag) Time Alt. Az. Time Alt. Az. Time Alt. Az.
22 May -1.4 00:04:25 10° WNW 00:07:12 25° NNW 00:09:59 10° NE visible
22 May -1.2 01:41:48 10° NW 01:44:26 22° N 01:47:03 10° ENE visible
22 May -3.1 03:18:11 10° NW 03:21:25 54° NNE 03:24:38 10° ESE visible
22 May -2.6 04:55:06 10° W 04:57:41 22° SW 05:00:15 10° S visible
22 May -3.7 21:35:05 10° SW 21:38:16 51° SE 21:41:28 10° ENE visible
22 May -1.9 23:11:54 10° W 23:14:53 31° NNW 23:17:52 10° NE visible
23 May -1.1 00:49:30 10° NW 00:52:03 20° N 00:54:36 10° NE visible
23 May -2.3 02:26:06 10° NW 02:29:10 36° NNE 02:32:14 10° E visible
23 May -3.4 04:02:36 10° WNW 04:05:41 39° SW 04:08:44 10° SSE visible
23 May -2.6 22:19:26 10° W 22:22:36 44° NNW 22:25:46 10° NE visible
23 May -1.1 23:57:04 10° WNW 23:59:39 21° N 00:02:14 10° NE visible
24 May -1.7 01:33:59 10° NW 01:36:51 27° NNE 01:37:44 24° NE visible
24 May -3.5 21:27:06 10° WSW 21:30:22 72° NNW 21:33:37 10° NE visible
24 May -1.3 23:04:32 10° WNW 23:07:15 23° N 23:09:58 10° NE visible
25 May -1.3 00:41:48 10° NW 00:44:28 23° N 00:46:06 16° NE visible
25 May -1.2 02:18:08 10° NW 02:18:41 14° NW 02:18:41 14° NW visible
25 May -1.7 22:11:58 10° W 22:14:52 28° NNW 22:17:47 10° NE visible
25 May -1.2 23:49:30 10° NW 23:52:04 21° N 23:54:38 10° NE visible
26 May -1.7 01:26:00 10° NW 01:27:43 25° NNW 01:27:43 25° NNW visible
26 May -2.2 21:19:25 10° W 21:22:32 39° NNW 21:25:38 10° NE visible
26 May -1.2 22:57:04 10° NW 22:59:37 20° N 23:02:11 10° NE visible
27 May -2.0 00:33:52 10° NW 00:36:48 30° NNE 00:36:56 30° NNE visible
27 May -1.3 22:04:31 10° WNW 22:07:11 22° N 22:09:50 10° NE visible
27 May -1.5 23:41:40 10° NW 23:44:24 24° NNE 23:46:14 15° ENE visible
28 May -1.3 01:17:59 10° WNW 01:18:51 17° NW 01:18:51 17° NW visible
28 May -1.3 22:49:22 10° NW 22:51:58 21° N 22:54:33 10° ENE visible
29 May -2.4 00:25:48 10° NW 00:28:12 38° NNW 00:28:12 38° NNW visible
29 May -1.3 21:56:56 10° NW 21:59:29 20° N 22:02:02 10° NE visible
29 May -2.3 23:33:37 10° NW 23:36:38 33° NNE 23:37:35 27° NE visible
30 May -0.9 01:10:03 10° WNW 01:10:13 11° WNW 01:10:13 11° WNW visible
30 May -1.8 22:41:24 10° NW 22:44:13 26° NNE 22:47:00 10° ENE visible
31 May -2.3 00:17:43 10° WNW 00:19:38 32° WNW 00:19:38 32° WNW visible
31 May -1.5 21:49:06 10° NW 21:51:44 22° N 21:54:23 10° ENE visible
31 May -3.4 23:25:28 10° NW 23:28:43 56° NNE 23:29:04 52° ENE visible
